Location: ??????????
(54.4061°N, 22.6114°E)
Time: 19:00:47
(UTC+00:00)

STARLINK-35 - Pass Details

Date: 23 October 2019
Orbit: 548 x 551 km, 53.0° (Epoch: 11 November)

Event Time Altitude Azimuth Distance (km) Brightness Sun altitude
Rises 16:36:50 0° 272° (W) 2,719 9.3 -12.6°
Reaches altitude 10° 16:39:04 10° 270° (W) 1,825 7.8 -13.0°
Maximum altitude 16:43:12 72° 187° (S) 583 3.7 -13.6°
Enters shadow 16:45:45 22° 107° (ESE) 1,214 4.8 -13.9°
